Satellite-Ground Cal/Val Site Overpasses Predictions

Prediction of Satellite NPP Overpassing Cal/Val Site: Antarctic Dome C

Ground Cal/Val Site Location: Latitude: -75.10, Longitude: 123.35; Satellite-Ground Site NADIR distance within 100 km.

Table of predicted overpasses for the next 14.0 days since TLE Epoch: 8/3/2024
Interval Starting Time Ending Time Minimum Distance Time Minimum Distance (km)
1 08/03/2024 07:44:33 08/03/2024 07:44:52 08/03/2024 07:44:42 75.30
2 08/04/2024 07:25:40 08/04/2024 07:26:08 08/04/2024 07:25:54 32.31
3 08/06/2024 15:08:11 08/06/2024 15:08:13 08/06/2024 15:08:12 99.54
4 08/07/2024 14:49:08 08/07/2024 14:49:37 08/07/2024 14:49:22 12.17
5 08/09/2024 07:31:58 08/09/2024 07:32:27 08/09/2024 07:32:13 4.84
6 08/12/2024 14:55:27 08/12/2024 14:55:56 08/12/2024 14:55:42 25.07
7 08/13/2024 14:36:44 08/13/2024 14:37:00 08/13/2024 14:36:52 82.24
8 08/14/2024 07:38:18 08/14/2024 07:38:45 08/14/2024 07:38:32 40.92
